Back to catalog

NUSAT-39

TIKVAH ALPER

AliveScienceSSO
NORAD 56201·PAYLOAD·🇦🇷 Argentina

Launched Apr 15, 2023 from Vandenberg Space Force Base

Loading…

Next Passes (next 24 hours)

TLE

FreshSource: Space-Track

Epoch: Sep 14, 2026, 14:11 UTC

1 56201U 23054Z   26257.59134888  .00027906  00000-0  48032-3 0  9990
2 56201  97.3029 168.4121 0006706  83.3208 276.8808 15.51035487192293

Track NUSAT-39 in real time with AllMySat

Download on the App Store